EKRAN 2 DEB, 29014

Orbit data source: Space-Track

EKRAN 2 DEB, 29014 is space debris in GEO originally from a launch on Tue, 20 Sep 1977 UTC launched from the Tyuratam Missile And Space Complex (TTMTR). Debris objects in space refer to the collection of defunct objects orbiting the Earth. Examples of debris include non-operational satellites, rocket bodies, and fragments generated from explosions, collisions, or faulty payload assembly.

Loading next visibility...
Identifier
29014, 1977-092K
Orbit
GEO
Country
Flag of CISCIS
Related business
Manufacturer
Unknown
Mission
Spacecraft
Bus & Motor
Unknown
Mass
Unknown
Launch date (UTC)
1977-09-20 (48 years ago)
Launch vehicle
Unknown
Launch site
Tyuratam Missile And Space Complex (TTMTR)
Object type
Payload
Rocket body
Debris
Shape & HBR
Unknown shape, 1.1 m
Radar Cross Section
Medium (>0.1 m² and <1 m²)

Expand to show TLE details & history
Last TLE update: 11 hours ago

TLE from 11 hours ago
0 EKRAN 2 DEB
1 29014U 77092K   26061.60661857  .00000093  00000-0  00000+0 0  9996
2 29014   4.4076 275.7077 0020280 346.9614 336.9560  1.00118937 46203
Epoch: 2026-03-02T14:33Z
TLE epoch observation values (Epoch: 2026-03-02T14:33:31.844Z)
Latitude
-2.57532°
Longitude
-139.11833°
Altitude
35,751.052 km
Speed
3.079 km/s
True Right ascension
15h 58m 38s
True Declination
-2° 34' 22"
Sunlit
Object was in daylight at epoch
Visualization orbit readout
Latitude
Unknown
Longitude
Unknown
Altitude
Unknown
Speed
Unknown
Apparent Right ascension
Unknown
Apparent Declination
Unknown
Sunlit
N/A
Visualization observer readout
Local Sidereal Time
05:20:58
Azimuth
Unknown
Elevation
Unknown
Doppler factor
Unknown
Orbital elements
Apogee altitude
35,916.158 km
Perigee altitude
35,744.959 km
Semi-major axis
42,208.695 km
Eccentricity
0.00203
Inclination
4.4076°
RAAN
275.7077°
Arg. of periapsis
346.9614°
True anomaly
336.86482°
Mean anomaly
336.956°
Eccentric anomaly
336.91043°
Mean motion
0.25029 °/min
Orbital period
1,438.34 mins
BSTAR
0
Loading maneuver chart data...
Computing Atmospheric mass density...
Loading historical data...
Loading historical data...
Loading historical data...
Loading historical data...
Loading historical data...
Loading historical data...
Loading historical data...

Documentation

Showing up to 5 results
|